Flag for U.S.A. Weather past 2 weeks in Gloucester, Massachusetts, U.S.A.

Now
50 °F

Clear.


Feels Like: 48 °F
Forecast: 52 / 74 °F
Wind: 5 mph from Southwest

Location: Beverly Municipal Airport

Current Time: May 24, 2015 at 4:06:47 AM

Latest Report: May 24, 2015 at 2:53 AM


Visibility: 10 mi

Pressure: 30.24 "Hg

Humidity: 50%

Dew point: 32 °F

Location of GloucesterLocation

Historic Weather in Gloucester — Graph

°F

Gloucester temperature yesterday

Maximum temperature yesterday: 63 °F (at 4:53 PM)
Minimum temperature yesterday: 42 °F (at 5:53 AM)
Average temperature yesterday: 53 °F

Past Weeks' High & Low Weather Summary

 TemperatureHumidityPressure
High88 °F (May 10, 3:53 PM)97% (May 17, 3:53 AM)30.34 "Hg (May 17, 3:53 AM)
Low40 °F (May 21, 4:53 AM)20% (May 23, 5:53 PM)29.61 "Hg (May 12, 4:53 PM)
Average59 °F63%30.04 "Hg
* Reported May 9 2:53 AM — May 24 2:53 AM, Gloucester, Weather by CustomWeather, © 2015

Note: Actual official high and low records may vary slightly from our data, if they occured in-between our weather recording intervals... More about our weather records

Advertising

Gloucester weather history for previous 24 hours

 ConditionsComfort  
Time TempWeatherWind HumidityBarometerVisibility
2:53 AM
Sun, May 24
50 °FClear.5 mph50%30.24 "Hg10 mi
1:53 AM50 °FClear.7 mph48%30.24 "Hg10 mi
12:53 AM50 °FClear.9 mph46%30.25 "Hg10 mi
11:53 PM
Sat, May 23
52 °FClear.3 mph40%30.26 "Hg10 mi
10:53 PM52 °FClear.3 mph41%30.25 "Hg10 mi
9:53 PM56 °FClear.3 mph30%30.25 "Hg10 mi
8:53 PM55 °FSunny.5 mph31%30.25 "Hg10 mi
7:53 PM58 °FSunny.7 mph28%30.24 "Hg10 mi
6:53 PM62 °FSunny.8 mph20%30.24 "Hg10 mi
5:53 PM63 °FSunny.12 mph20%30.23 "Hg10 mi
4:53 PM63 °FSunny.8 mph21%30.24 "Hg10 mi
3:53 PM62 °FSunny.13 mph21%30.25 "Hg10 mi
2:53 PM62 °FSunny.13 mph22%30.27 "Hg10 mi
1:53 PM59 °FSunny.14 mph23%30.27 "Hg10 mi
12:53 PM58 °FSunny.20 mph26%30.28 "Hg10 mi
11:53 AM55 °FSunny.15 mph29%30.28 "Hg10 mi
10:53 AM53 °FSunny.15 mph30%30.29 "Hg10 mi
9:53 AM51 °FSunny.15 mph32%30.29 "Hg10 mi
8:53 AM48 °FSunny.14 mph33%30.28 "Hg10 mi
7:53 AM46 °FSunny.9 mph38%30.27 "Hg10 mi
6:53 AM44 °FSunny.9 mph45%30.26 "Hg10 mi
5:53 AM42 °FClear.6 mph49%30.22 "Hg10 mi
4:53 AM43 °FClear.12 mph56%30.18 "Hg10 mi
Weather by CustomWeather, © 2015

See weather overviewHow to use our weather pages